Year,Month,Day,Hour,Minute,Value (Times are PST for temperature in C)
2017,03,31,00,00,6.10
2017,03,31,00,01,6.20
2017,03,31,00,02,6.20
2017,03,31,00,03,6.20
2017,03,31,00,04,6.20
2017,03,31,00,05,6.20
2017,03,31,00,06,6.20
2017,03,31,00,07,6.20
2017,03,31,00,08,6.20
2017,03,31,00,09,6.20
2017,03,31,00,10,6.20
2017,03,31,00,11,6.20
2017,03,31,00,12,6.20
2017,03,31,00,13,6.20
2017,03,31,00,14,6.20
2017,03,31,00,15,6.20
2017,03,31,00,16,6.10
2017,03,31,00,17,6.10
2017,03,31,00,18,6.10
2017,03,31,00,19,6.10
2017,03,31,00,20,6.10
2017,03,31,00,21,6.10
2017,03,31,00,22,6.10
2017,03,31,00,23,6.10
2017,03,31,00,24,6.10
2017,03,31,00,25,6.10
2017,03,31,00,26,6.10
2017,03,31,00,27,6.10
2017,03,31,00,28,6.00
2017,03,31,00,29,6.00
2017,03,31,00,30,6.00
2017,03,31,00,31,6.00
2017,03,31,00,32,5.90
2017,03,31,00,33,5.90
2017,03,31,00,34,5.90
2017,03,31,00,35,5.90
2017,03,31,00,36,5.80
2017,03,31,00,37,5.80
2017,03,31,00,38,5.80
2017,03,31,00,39,5.70
2017,03,31,00,40,5.70
2017,03,31,00,41,5.70
2017,03,31,00,42,5.60
2017,03,31,00,43,5.60
2017,03,31,00,44,5.60
2017,03,31,00,45,5.50
2017,03,31,00,46,5.50
2017,03,31,00,47,5.40
2017,03,31,00,48,5.40
2017,03,31,00,49,5.40
2017,03,31,00,50,5.30
2017,03,31,00,51,5.30
2017,03,31,00,52,5.30
2017,03,31,00,53,5.30
2017,03,31,00,54,5.20
2017,03,31,00,55,5.20
2017,03,31,00,56,5.20
2017,03,31,00,57,5.10
2017,03,31,00,58,5.10
2017,03,31,00,59,5.10
2017,03,31,01,00,5.10
2017,03,31,01,01,5.00
2017,03,31,01,02,5.00
2017,03,31,01,03,4.90
2017,03,31,01,04,4.90
2017,03,31,01,05,4.90
2017,03,31,01,06,4.90
2017,03,31,01,07,4.80
2017,03,31,01,08,4.80
2017,03,31,01,09,4.80
2017,03,31,01,10,4.80
2017,03,31,01,11,4.70
2017,03,31,01,12,4.70
2017,03,31,01,13,4.70
2017,03,31,01,14,4.60
2017,03,31,01,15,4.60
2017,03,31,01,16,4.60
2017,03,31,01,17,4.60
2017,03,31,01,18,4.60
2017,03,31,01,19,4.60
2017,03,31,01,20,4.50
2017,03,31,01,21,4.50
2017,03,31,01,22,4.50
2017,03,31,01,23,4.40
2017,03,31,01,24,4.40
2017,03,31,01,25,4.40
2017,03,31,01,26,4.30
2017,03,31,01,27,4.30
2017,03,31,01,28,4.30
2017,03,31,01,29,4.30
2017,03,31,01,30,4.20
2017,03,31,01,31,4.20
2017,03,31,01,32,4.20
2017,03,31,01,33,4.20
2017,03,31,01,34,4.10
2017,03,31,01,35,4.10
2017,03,31,01,36,4.10
2017,03,31,01,37,4.00
2017,03,31,01,38,4.00
2017,03,31,01,39,4.00
2017,03,31,01,40,4.00
2017,03,31,01,41,3.90
2017,03,31,01,42,3.90
2017,03,31,01,43,3.90
2017,03,31,01,44,3.90
2017,03,31,01,45,3.90
2017,03,31,01,46,3.90
2017,03,31,01,47,3.90
2017,03,31,01,48,3.90
2017,03,31,01,49,3.90
2017,03,31,01,50,3.90
2017,03,31,01,51,3.90
2017,03,31,01,52,3.80
2017,03,31,01,53,3.80
2017,03,31,01,54,3.80
2017,03,31,01,55,3.70
2017,03,31,01,56,3.70
2017,03,31,01,57,3.70
2017,03,31,01,58,3.70
2017,03,31,01,59,3.60
2017,03,31,02,00,3.60
2017,03,31,02,01,3.60
2017,03,31,02,02,3.60
2017,03,31,02,03,3.50
2017,03,31,02,04,3.50
2017,03,31,02,05,3.50
2017,03,31,02,06,3.40
2017,03,31,02,07,3.40
2017,03,31,02,08,3.40
2017,03,31,02,09,3.40
2017,03,31,02,10,3.40
2017,03,31,02,11,3.30
2017,03,31,02,12,3.30
2017,03,31,02,13,3.30
2017,03,31,02,14,3.30
2017,03,31,02,15,3.30
2017,03,31,02,16,3.30
2017,03,31,02,17,3.30
2017,03,31,02,18,3.30
2017,03,31,02,19,3.30
2017,03,31,02,20,3.30
2017,03,31,02,21,3.30
2017,03,31,02,22,3.20
2017,03,31,02,23,3.20
2017,03,31,02,24,3.20
2017,03,31,02,25,3.20
2017,03,31,02,26,3.10
2017,03,31,02,27,3.10
2017,03,31,02,28,3.10
2017,03,31,02,29,3.10
2017,03,31,02,30,3.10
2017,03,31,02,31,3.00
2017,03,31,02,32,3.00
2017,03,31,02,33,3.00
2017,03,31,02,34,2.90
2017,03,31,02,35,2.90
2017,03,31,02,36,2.90
2017,03,31,02,37,2.90
2017,03,31,02,38,2.90
2017,03,31,02,39,2.90
2017,03,31,02,40,2.90
2017,03,31,02,41,2.90
2017,03,31,02,42,2.80
2017,03,31,02,43,2.80
2017,03,31,02,44,2.80
2017,03,31,02,45,2.80
2017,03,31,02,46,2.80
2017,03,31,02,47,2.80
2017,03,31,02,48,2.80
2017,03,31,02,49,2.70
2017,03,31,02,50,2.70
2017,03,31,02,51,2.70
2017,03,31,02,52,2.70
2017,03,31,02,53,2.70
2017,03,31,02,54,2.60
2017,03,31,02,55,2.60
2017,03,31,02,56,2.60
2017,03,31,02,57,2.60
2017,03,31,02,58,2.60
2017,03,31,02,59,2.60
2017,03,31,03,00,2.60
2017,03,31,03,01,2.60
2017,03,31,03,02,2.60
2017,03,31,03,03,2.60
2017,03,31,03,04,2.60
2017,03,31,03,05,2.60
2017,03,31,03,06,2.60
2017,03,31,03,07,2.60
2017,03,31,03,08,2.60
2017,03,31,03,09,2.60
2017,03,31,03,10,2.60
2017,03,31,03,11,2.60
2017,03,31,03,12,2.60
2017,03,31,03,13,2.60
2017,03,31,03,14,2.60
2017,03,31,03,15,2.60
2017,03,31,03,16,2.60
2017,03,31,03,17,2.60
2017,03,31,03,18,2.60
2017,03,31,03,19,2.60
2017,03,31,03,20,2.60
2017,03,31,03,21,2.60
2017,03,31,03,22,2.60
2017,03,31,03,23,2.60
2017,03,31,03,24,2.50
2017,03,31,03,25,2.50
2017,03,31,03,26,2.50
2017,03,31,03,27,2.40
2017,03,31,03,28,2.40
2017,03,31,03,29,2.40
2017,03,31,03,30,2.40
2017,03,31,03,31,2.40
2017,03,31,03,32,2.30
2017,03,31,03,33,2.30
2017,03,31,03,34,2.30
2017,03,31,03,35,2.30
2017,03,31,03,36,2.30
2017,03,31,03,37,2.30
2017,03,31,03,38,2.20
2017,03,31,03,39,2.20
2017,03,31,03,40,2.20
2017,03,31,03,41,2.20
2017,03,31,03,42,2.20
2017,03,31,03,43,2.20
2017,03,31,03,44,2.30
2017,03,31,03,45,2.30
2017,03,31,03,46,2.30
2017,03,31,03,47,2.30
2017,03,31,03,48,2.20
2017,03,31,03,49,2.20
2017,03,31,03,50,2.20
2017,03,31,03,51,2.20
2017,03,31,03,52,2.20
2017,03,31,03,53,2.20
2017,03,31,03,54,2.20
2017,03,31,03,55,2.10
2017,03,31,03,56,2.10
2017,03,31,03,57,2.10
2017,03,31,03,58,2.10
2017,03,31,03,59,2.00
2017,03,31,04,00,2.00
2017,03,31,04,01,2.00
2017,03,31,04,02,1.90
2017,03,31,04,03,1.90
2017,03,31,04,04,1.90
2017,03,31,04,05,1.90
2017,03,31,04,06,1.90
2017,03,31,04,07,1.90
2017,03,31,04,08,1.90
2017,03,31,04,09,1.90
2017,03,31,04,10,1.90
2017,03,31,04,11,1.90
2017,03,31,04,12,1.90
2017,03,31,04,13,1.90
2017,03,31,04,14,1.90
2017,03,31,04,15,1.90
2017,03,31,04,16,1.80
2017,03,31,04,17,1.80
2017,03,31,04,18,1.80
2017,03,31,04,19,1.80
2017,03,31,04,20,1.80
2017,03,31,04,21,1.80
2017,03,31,04,22,1.80
2017,03,31,04,23,1.80
2017,03,31,04,24,1.80
2017,03,31,04,25,1.70
2017,03,31,04,26,1.70
2017,03,31,04,27,1.70
2017,03,31,04,28,1.70
2017,03,31,04,29,1.70
2017,03,31,04,30,1.70
2017,03,31,04,31,1.70
2017,03,31,04,32,1.70
2017,03,31,04,33,1.70
2017,03,31,04,34,1.70
2017,03,31,04,35,1.70
2017,03,31,04,36,1.80
2017,03,31,04,37,1.80
2017,03,31,04,38,1.80
2017,03,31,04,39,1.80
2017,03,31,04,40,1.70
2017,03,31,04,41,1.70
2017,03,31,04,42,1.70
2017,03,31,04,43,1.70
2017,03,31,04,44,1.70
2017,03,31,04,45,1.70
2017,03,31,04,46,1.70
2017,03,31,04,47,1.70
2017,03,31,04,48,1.70
2017,03,31,04,49,1.60
2017,03,31,04,50,1.60
2017,03,31,04,51,1.60
2017,03,31,04,52,1.70
2017,03,31,04,53,1.70
2017,03,31,04,54,1.60
2017,03,31,04,55,1.60
2017,03,31,04,56,1.60
2017,03,31,04,57,1.60
2017,03,31,04,58,1.60
2017,03,31,04,59,1.60
2017,03,31,05,00,1.60
2017,03,31,05,01,1.60
2017,03,31,05,02,1.60
2017,03,31,05,03,1.60
2017,03,31,05,04,1.60
2017,03,31,05,05,1.60
2017,03,31,05,06,1.60
2017,03,31,05,07,1.60
2017,03,31,05,08,1.60
2017,03,31,05,09,1.60
2017,03,31,05,10,1.60
2017,03,31,05,11,1.60
2017,03,31,05,12,1.60
2017,03,31,05,13,1.60
2017,03,31,05,14,1.60
2017,03,31,05,15,1.60
2017,03,31,05,16,1.60
2017,03,31,05,17,1.60
2017,03,31,05,18,1.60
2017,03,31,05,19,1.60
2017,03,31,05,20,1.60
2017,03,31,05,21,1.70
2017,03,31,05,22,1.60
2017,03,31,05,23,1.60
2017,03,31,05,24,1.60
2017,03,31,05,25,1.60
2017,03,31,05,26,1.60
2017,03,31,05,27,1.60
2017,03,31,05,28,1.60
2017,03,31,05,29,1.60
2017,03,31,05,30,1.60
2017,03,31,05,31,1.60
2017,03,31,05,32,1.60
2017,03,31,05,33,1.60
2017,03,31,05,34,1.60
2017,03,31,05,35,1.60
2017,03,31,05,36,1.60
2017,03,31,05,37,1.60
2017,03,31,05,38,1.60
2017,03,31,05,39,1.60
2017,03,31,05,40,1.60
2017,03,31,05,41,1.70
2017,03,31,05,42,1.70
2017,03,31,05,43,1.70
2017,03,31,05,44,1.70
2017,03,31,05,45,1.70
2017,03,31,05,46,1.60
2017,03,31,05,47,1.60
2017,03,31,05,48,1.60
2017,03,31,05,49,1.60
2017,03,31,05,50,1.50
2017,03,31,05,51,1.50
2017,03,31,05,52,1.50
2017,03,31,05,53,1.50
2017,03,31,05,54,1.50
2017,03,31,05,55,1.50
2017,03,31,05,56,1.60
2017,03,31,05,57,1.60
2017,03,31,05,58,1.60
2017,03,31,05,59,1.60
2017,03,31,06,00,1.60
2017,03,31,06,01,1.60
2017,03,31,06,02,1.60
2017,03,31,06,03,1.60
2017,03,31,06,04,1.50
2017,03,31,06,05,1.50
2017,03,31,06,06,1.40
2017,03,31,06,07,1.40
2017,03,31,06,08,1.40
2017,03,31,06,09,1.40
2017,03,31,06,10,1.40
2017,03,31,06,11,1.40
2017,03,31,06,12,1.40
2017,03,31,06,13,1.40
2017,03,31,06,14,1.40
2017,03,31,06,15,1.40
2017,03,31,06,16,1.40
2017,03,31,06,17,1.40
2017,03,31,06,18,1.40
2017,03,31,06,19,1.40
2017,03,31,06,20,1.50
2017,03,31,06,21,1.50
2017,03,31,06,22,1.50
2017,03,31,06,23,1.50
2017,03,31,06,24,1.50
2017,03,31,06,25,1.50
2017,03,31,06,26,1.50
2017,03,31,06,27,1.50
2017,03,31,06,28,1.50
2017,03,31,06,29,1.50
2017,03,31,06,30,1.50
2017,03,31,06,31,1.50
2017,03,31,06,32,1.50
2017,03,31,06,33,1.50
2017,03,31,06,34,1.50
2017,03,31,06,35,1.50
2017,03,31,06,36,1.50
2017,03,31,06,37,1.50
2017,03,31,06,38,1.50
2017,03,31,06,39,1.50
2017,03,31,06,40,1.50
2017,03,31,06,41,1.50
2017,03,31,06,42,1.40
2017,03,31,06,43,1.40
2017,03,31,06,44,1.40
2017,03,31,06,45,1.40
2017,03,31,06,46,1.40
2017,03,31,06,47,1.40
2017,03,31,06,48,1.40
2017,03,31,06,49,1.40
2017,03,31,06,50,1.40
2017,03,31,06,51,1.40
2017,03,31,06,52,1.30
2017,03,31,06,53,1.30
2017,03,31,06,54,1.30
2017,03,31,06,55,1.30
2017,03,31,06,56,1.30
2017,03,31,06,57,1.30
2017,03,31,06,58,1.30
2017,03,31,06,59,1.30
2017,03,31,07,00,1.30
2017,03,31,07,01,1.30
2017,03,31,07,02,1.30
2017,03,31,07,03,1.30
2017,03,31,07,04,1.30
2017,03,31,07,05,1.30
2017,03,31,07,06,1.30
2017,03,31,07,07,1.30
2017,03,31,07,08,1.30
2017,03,31,07,09,1.30
2017,03,31,07,10,1.30
2017,03,31,07,11,1.30
2017,03,31,07,12,1.30
2017,03,31,07,13,1.30
2017,03,31,07,14,1.30
2017,03,31,07,15,1.40
2017,03,31,07,16,1.40
2017,03,31,07,17,1.40
2017,03,31,07,18,1.40
2017,03,31,07,19,1.40
2017,03,31,07,20,1.40
2017,03,31,07,21,1.40
2017,03,31,07,22,1.40
2017,03,31,07,23,1.40
2017,03,31,07,24,1.40
2017,03,31,07,25,1.40
2017,03,31,07,26,1.40
2017,03,31,07,27,1.50
2017,03,31,07,28,1.50
2017,03,31,07,29,1.50
2017,03,31,07,30,1.50
2017,03,31,07,31,1.60
2017,03,31,07,32,1.60
2017,03,31,07,33,1.60
2017,03,31,07,34,1.70
2017,03,31,07,35,1.70
2017,03,31,07,36,1.70
2017,03,31,07,37,1.70
2017,03,31,07,38,1.80
2017,03,31,07,39,1.80
2017,03,31,07,40,1.90
2017,03,31,07,41,2.00
2017,03,31,07,42,2.00
2017,03,31,07,43,2.10
2017,03,31,07,44,2.20
2017,03,31,07,45,2.20
2017,03,31,07,46,2.30
2017,03,31,07,47,2.30
2017,03,31,07,48,2.40
2017,03,31,07,49,2.40
2017,03,31,07,50,2.40
2017,03,31,07,51,2.50
2017,03,31,07,52,2.50
2017,03,31,07,53,2.50
2017,03,31,07,54,2.40
2017,03,31,07,55,2.40
2017,03,31,07,56,2.40
2017,03,31,07,57,2.40
2017,03,31,07,58,2.40
2017,03,31,07,59,2.40
2017,03,31,08,00,2.40
2017,03,31,08,01,2.50
2017,03,31,08,02,2.60
2017,03,31,08,03,2.70
2017,03,31,08,04,2.80
2017,03,31,08,05,2.90
2017,03,31,08,06,3.00
2017,03,31,08,07,3.10
2017,03,31,08,08,3.20
2017,03,31,08,09,3.30
2017,03,31,08,10,3.40
2017,03,31,08,11,3.40
2017,03,31,08,12,3.50
2017,03,31,08,13,3.60
2017,03,31,08,14,3.70
2017,03,31,08,15,3.80
2017,03,31,08,16,3.80
2017,03,31,08,17,3.80
2017,03,31,08,18,3.90
2017,03,31,08,19,3.90
2017,03,31,08,20,3.90
2017,03,31,08,21,4.00
2017,03,31,08,22,4.00
2017,03,31,08,23,4.10
2017,03,31,08,24,4.10
2017,03,31,08,25,4.10
2017,03,31,08,26,4.10
2017,03,31,08,27,4.20
2017,03,31,08,28,4.20
2017,03,31,08,29,4.20
2017,03,31,08,30,4.30
2017,03,31,08,31,4.30
2017,03,31,08,32,4.30
2017,03,31,08,33,4.40
2017,03,31,08,34,4.40
2017,03,31,08,35,4.50
2017,03,31,08,36,4.50
2017,03,31,08,37,4.60
2017,03,31,08,38,4.60
2017,03,31,08,39,4.70
2017,03,31,08,40,4.70
2017,03,31,08,41,4.70
2017,03,31,08,42,4.80
2017,03,31,08,43,4.80
2017,03,31,08,44,4.90
2017,03,31,08,45,5.00
2017,03,31,08,46,5.00
2017,03,31,08,47,5.10
2017,03,31,08,48,5.10
2017,03,31,08,49,5.10
2017,03,31,08,50,5.20
2017,03,31,08,51,5.20
2017,03,31,08,52,5.20
2017,03,31,08,53,5.30
2017,03,31,08,54,5.30
2017,03,31,08,55,5.40
2017,03,31,08,56,5.50
2017,03,31,08,57,5.50
2017,03,31,08,58,5.60
2017,03,31,08,59,5.70
2017,03,31,09,00,5.80
2017,03,31,09,01,5.80
2017,03,31,09,02,5.80
2017,03,31,09,03,5.90
2017,03,31,09,04,5.90
2017,03,31,09,05,6.00
2017,03,31,09,06,6.00
2017,03,31,09,07,6.00
2017,03,31,09,08,6.10
2017,03,31,09,09,6.10
2017,03,31,09,10,6.10
2017,03,31,09,11,6.10
2017,03,31,09,12,6.10
2017,03,31,09,13,6.20
2017,03,31,09,14,6.20
2017,03,31,09,15,6.20
2017,03,31,09,16,6.20
2017,03,31,09,17,6.20
2017,03,31,09,18,6.20
2017,03,31,09,19,6.30
2017,03,31,09,20,6.30
2017,03,31,09,21,6.30
2017,03,31,09,22,6.40
2017,03,31,09,23,6.40
2017,03,31,09,24,6.40
2017,03,31,09,25,6.50
2017,03,31,09,26,6.60
2017,03,31,09,27,6.60
2017,03,31,09,28,6.70
2017,03,31,09,29,6.70
2017,03,31,09,30,6.80
2017,03,31,09,31,6.80
2017,03,31,09,32,6.80
2017,03,31,09,33,6.90
2017,03,31,09,34,6.90
2017,03,31,09,35,6.90
2017,03,31,09,36,7.00
2017,03,31,09,37,7.00
2017,03,31,09,38,7.10
2017,03,31,09,39,7.10
2017,03,31,09,40,7.20
2017,03,31,09,41,7.20
2017,03,31,09,42,7.30
2017,03,31,09,43,7.30
2017,03,31,09,44,7.40
2017,03,31,09,45,7.40
2017,03,31,09,46,7.50
2017,03,31,09,47,7.50
2017,03,31,09,48,7.60
2017,03,31,09,49,7.60
2017,03,31,09,50,7.60
2017,03,31,09,51,7.60
2017,03,31,09,52,7.70
2017,03,31,09,53,7.70
2017,03,31,09,54,7.70
2017,03,31,09,55,7.70
2017,03,31,09,56,7.70
2017,03,31,09,57,7.70
2017,03,31,09,58,7.70
2017,03,31,09,59,7.80
2017,03,31,10,00,7.80
2017,03,31,10,01,7.80
2017,03,31,10,02,7.80
2017,03,31,10,03,7.80
2017,03,31,10,04,7.80
2017,03,31,10,05,7.80
2017,03,31,10,06,7.80
2017,03,31,10,07,7.80
2017,03,31,10,08,7.80
2017,03,31,10,09,7.80
2017,03,31,10,10,7.80
2017,03,31,10,11,7.80
2017,03,31,10,12,7.80
2017,03,31,10,13,7.80
2017,03,31,10,14,7.80
2017,03,31,10,15,7.90
2017,03,31,10,16,7.90
2017,03,31,10,17,7.90
2017,03,31,10,18,7.90
2017,03,31,10,19,7.90
2017,03,31,10,20,7.90
2017,03,31,10,21,8.00
2017,03,31,10,22,8.00
2017,03,31,10,23,8.00
2017,03,31,10,24,8.00
2017,03,31,10,25,8.00
2017,03,31,10,26,8.00
2017,03,31,10,27,8.00
2017,03,31,10,28,8.00
2017,03,31,10,29,8.10
2017,03,31,10,30,8.10
2017,03,31,10,31,8.20
2017,03,31,10,32,8.20
2017,03,31,10,33,8.20
2017,03,31,10,34,8.30
2017,03,31,10,35,8.30
2017,03,31,10,36,8.30
2017,03,31,10,37,8.20
2017,03,31,10,38,8.30
2017,03,31,10,39,8.30
2017,03,31,10,40,8.30
2017,03,31,10,41,8.40
2017,03,31,10,42,8.40
2017,03,31,10,43,8.50
2017,03,31,10,44,8.50
2017,03,31,10,45,8.60
2017,03,31,10,46,8.60
2017,03,31,10,47,8.60
2017,03,31,10,48,8.60
2017,03,31,10,49,8.60
2017,03,31,10,50,8.60
2017,03,31,10,51,8.70
2017,03,31,10,52,8.70
2017,03,31,10,53,8.70
2017,03,31,10,54,8.80
2017,03,31,10,55,8.80
2017,03,31,10,56,8.80
2017,03,31,10,57,8.80
2017,03,31,10,58,8.80
2017,03,31,10,59,8.80
2017,03,31,11,00,8.80
2017,03,31,11,01,8.80
2017,03,31,11,02,8.80
2017,03,31,11,03,8.80
2017,03,31,11,04,8.80
2017,03,31,11,05,8.80
2017,03,31,11,06,8.80
2017,03,31,11,07,8.80
2017,03,31,11,08,8.80
2017,03,31,11,09,8.80
2017,03,31,11,10,8.80
2017,03,31,11,11,8.80
2017,03,31,11,12,8.80
2017,03,31,11,13,8.90
2017,03,31,11,14,8.90
2017,03,31,11,15,8.90
2017,03,31,11,16,8.90
2017,03,31,11,17,8.90
2017,03,31,11,18,9.00
2017,03,31,11,19,9.00
2017,03,31,11,20,9.10
2017,03,31,11,21,9.10
2017,03,31,11,22,9.10
2017,03,31,11,23,9.10
2017,03,31,11,24,9.10
2017,03,31,11,25,9.20
2017,03,31,11,26,9.20
2017,03,31,11,27,9.20
2017,03,31,11,28,9.20
2017,03,31,11,29,9.20
2017,03,31,11,30,9.20
2017,03,31,11,31,9.20
2017,03,31,11,32,9.20
2017,03,31,11,33,9.20
2017,03,31,11,34,9.10
2017,03,31,11,35,9.10
2017,03,31,11,36,9.20
2017,03,31,11,37,9.20
2017,03,31,11,38,9.10
2017,03,31,11,39,9.10
2017,03,31,11,40,9.10
2017,03,31,11,41,9.10
2017,03,31,11,42,9.10
2017,03,31,11,43,9.10
2017,03,31,11,44,9.20
2017,03,31,11,45,9.20
2017,03,31,11,46,9.30
2017,03,31,11,47,9.30
2017,03,31,11,48,9.20
2017,03,31,11,49,9.20
2017,03,31,11,50,9.20
2017,03,31,11,51,9.20
2017,03,31,11,52,9.30
2017,03,31,11,53,9.30
2017,03,31,11,54,9.30
2017,03,31,11,55,9.30
2017,03,31,11,56,9.40
2017,03,31,11,57,9.40
2017,03,31,11,58,9.40
2017,03,31,11,59,9.40
2017,03,31,12,00,9.40
2017,03,31,12,01,9.50
2017,03,31,12,02,9.50
2017,03,31,12,03,9.50
2017,03,31,12,04,9.60
2017,03,31,12,05,9.60
2017,03,31,12,06,9.60
2017,03,31,12,07,9.60
2017,03,31,12,08,9.60
2017,03,31,12,09,9.70
2017,03,31,12,10,9.80
2017,03,31,12,11,9.80
2017,03,31,12,12,9.80
2017,03,31,12,13,9.80
2017,03,31,12,14,9.90
2017,03,31,12,15,9.90
2017,03,31,12,16,10.00
2017,03,31,12,17,10.10
2017,03,31,12,18,10.10
2017,03,31,12,19,10.10
2017,03,31,12,20,10.00
2017,03,31,12,21,10.00
2017,03,31,12,22,10.00
2017,03,31,12,23,9.90
2017,03,31,12,24,9.90
2017,03,31,12,25,9.90
2017,03,31,12,26,9.80
2017,03,31,12,27,9.80
2017,03,31,12,28,9.80
2017,03,31,12,29,9.80
2017,03,31,12,30,9.80
2017,03,31,12,31,9.80
2017,03,31,12,32,9.80
2017,03,31,12,33,9.80
2017,03,31,12,34,9.80
2017,03,31,12,35,9.80
2017,03,31,12,36,9.80
2017,03,31,12,37,9.80
2017,03,31,12,38,9.80
2017,03,31,12,39,9.80
2017,03,31,12,40,9.70
2017,03,31,12,41,9.70
2017,03,31,12,42,9.60
2017,03,31,12,43,9.60
2017,03,31,12,44,9.60
2017,03,31,12,45,9.70
2017,03,31,12,46,9.70
2017,03,31,12,47,9.80
2017,03,31,12,48,9.80
2017,03,31,12,49,9.90
2017,03,31,12,50,9.90
2017,03,31,12,51,9.80
2017,03,31,12,52,9.70
2017,03,31,12,53,9.70
2017,03,31,12,54,9.70
2017,03,31,12,55,9.70
2017,03,31,12,56,9.70
2017,03,31,12,57,9.70
2017,03,31,12,58,9.70
2017,03,31,12,59,9.70
2017,03,31,13,00,9.70
2017,03,31,13,01,9.70
2017,03,31,13,02,9.70
2017,03,31,13,03,9.70
2017,03,31,13,04,9.70
2017,03,31,13,05,9.80
2017,03,31,13,06,9.80
2017,03,31,13,07,9.80
2017,03,31,13,08,9.90
2017,03,31,13,09,9.80
2017,03,31,13,10,9.80
2017,03,31,13,11,9.80
2017,03,31,13,12,9.70
2017,03,31,13,13,9.60
2017,03,31,13,14,9.60
2017,03,31,13,15,9.60
2017,03,31,13,16,9.60
2017,03,31,13,17,9.50
2017,03,31,13,18,9.40
2017,03,31,13,19,9.40
2017,03,31,13,20,9.40
2017,03,31,13,21,9.40
2017,03,31,13,22,9.40
2017,03,31,13,23,9.50
2017,03,31,13,24,9.50
2017,03,31,13,25,9.50
2017,03,31,13,26,9.50
2017,03,31,13,27,9.60
2017,03,31,13,28,9.60
2017,03,31,13,29,9.70
2017,03,31,13,30,9.70
2017,03,31,13,31,9.70
2017,03,31,13,32,9.70
2017,03,31,13,33,9.70
2017,03,31,13,34,9.70
2017,03,31,13,35,9.70
2017,03,31,13,36,9.70
2017,03,31,13,37,9.70
2017,03,31,13,38,9.70
2017,03,31,13,39,9.70
2017,03,31,13,40,9.70
2017,03,31,13,41,9.60
2017,03,31,13,42,9.60
2017,03,31,13,43,9.60
2017,03,31,13,44,9.70
2017,03,31,13,45,9.70
2017,03,31,13,46,9.80
2017,03,31,13,47,9.80
2017,03,31,13,48,9.80
2017,03,31,13,49,9.80
2017,03,31,13,50,9.80
2017,03,31,13,51,9.90
2017,03,31,13,52,9.90
2017,03,31,13,53,9.90
2017,03,31,13,54,9.90
2017,03,31,13,55,9.80
2017,03,31,13,56,9.80
2017,03,31,13,57,9.80
2017,03,31,13,58,9.80
2017,03,31,13,59,9.80
2017,03,31,14,00,9.90
2017,03,31,14,01,9.80
2017,03,31,14,02,9.80
2017,03,31,14,03,9.80
2017,03,31,14,04,9.80
2017,03,31,14,05,9.80
2017,03,31,14,06,9.80
2017,03,31,14,07,9.80
2017,03,31,14,08,9.80
2017,03,31,14,09,9.80
2017,03,31,14,10,9.80
2017,03,31,14,11,9.80
2017,03,31,14,12,9.70
2017,03,31,14,13,9.70
2017,03,31,14,14,9.70
2017,03,31,14,15,9.70
2017,03,31,14,16,9.70
2017,03,31,14,17,9.70
2017,03,31,14,18,9.70
2017,03,31,14,19,9.70
2017,03,31,14,20,9.70
2017,03,31,14,21,9.70
2017,03,31,14,22,9.70
2017,03,31,14,23,9.70
2017,03,31,14,24,9.70
2017,03,31,14,25,9.70
2017,03,31,14,26,9.60
2017,03,31,14,27,9.60
2017,03,31,14,28,9.60
2017,03,31,14,29,9.60
2017,03,31,14,30,9.60
2017,03,31,14,31,9.70
2017,03,31,14,32,9.70
2017,03,31,14,33,9.70
2017,03,31,14,34,9.70
2017,03,31,14,35,9.70
2017,03,31,14,36,9.70
2017,03,31,14,37,9.70
2017,03,31,14,38,9.80
2017,03,31,14,39,9.80
2017,03,31,14,40,9.90
2017,03,31,14,41,9.90
2017,03,31,14,42,9.90
2017,03,31,14,43,9.80
2017,03,31,14,44,9.80
2017,03,31,14,45,9.80
2017,03,31,14,46,9.80
2017,03,31,14,47,9.90
2017,03,31,14,48,9.90
2017,03,31,14,49,9.90
2017,03,31,14,50,9.90
2017,03,31,14,51,9.90
2017,03,31,14,52,9.90
2017,03,31,14,53,9.90
2017,03,31,14,54,9.90
2017,03,31,14,55,9.90
2017,03,31,14,56,10.00
2017,03,31,14,57,10.00
2017,03,31,14,58,10.00
2017,03,31,14,59,10.10
2017,03,31,15,00,10.10
2017,03,31,15,01,10.10
2017,03,31,15,02,10.10
2017,03,31,15,03,10.20
2017,03,31,15,04,10.20
2017,03,31,15,05,10.20
2017,03,31,15,06,10.30
2017,03,31,15,07,10.30
2017,03,31,15,08,10.20
2017,03,31,15,09,10.20
2017,03,31,15,10,10.20
2017,03,31,15,11,10.20
2017,03,31,15,12,10.10
2017,03,31,15,13,10.10
2017,03,31,15,14,10.10
2017,03,31,15,15,10.10
2017,03,31,15,16,10.10
2017,03,31,15,17,10.00
2017,03,31,15,18,10.00
2017,03,31,15,19,10.00
2017,03,31,15,20,10.00
2017,03,31,15,21,9.90
2017,03,31,15,22,9.90
2017,03,31,15,23,9.90
2017,03,31,15,24,9.90
2017,03,31,15,25,9.90
2017,03,31,15,26,9.90
2017,03,31,15,27,10.00
2017,03,31,15,28,10.00
2017,03,31,15,29,10.10
2017,03,31,15,30,10.20
2017,03,31,15,31,10.20
2017,03,31,15,32,10.10
2017,03,31,15,33,10.10
2017,03,31,15,34,10.00
2017,03,31,15,35,10.00
2017,03,31,15,36,10.00
2017,03,31,15,37,10.00
2017,03,31,15,38,10.10
2017,03,31,15,39,10.10
2017,03,31,15,40,10.10
2017,03,31,15,41,10.10
2017,03,31,15,42,10.10
2017,03,31,15,43,10.10
2017,03,31,15,44,10.10
2017,03,31,15,45,10.10
2017,03,31,15,46,10.10
2017,03,31,15,47,10.10
2017,03,31,15,48,10.00
2017,03,31,15,49,10.00
2017,03,31,15,50,10.00
2017,03,31,15,51,10.00
2017,03,31,15,52,10.00
2017,03,31,15,53,10.10
2017,03,31,15,54,10.10
2017,03,31,15,55,10.20
2017,03,31,15,56,10.20
2017,03,31,15,57,10.20
2017,03,31,15,58,10.20
2017,03,31,15,59,10.20
2017,03,31,16,00,10.10
2017,03,31,16,01,10.10
2017,03,31,16,02,10.10
2017,03,31,16,03,10.10
2017,03,31,16,04,10.10
2017,03,31,16,05,10.10
2017,03,31,16,06,10.10
2017,03,31,16,07,10.00
2017,03,31,16,08,10.00
2017,03,31,16,09,10.00
2017,03,31,16,10,10.00
2017,03,31,16,11,10.00
2017,03,31,16,12,9.90
2017,03,31,16,13,9.90
2017,03,31,16,14,9.90
2017,03,31,16,15,9.90
2017,03,31,16,16,9.90
2017,03,31,16,17,9.90
2017,03,31,16,18,9.90
2017,03,31,16,19,10.00
2017,03,31,16,20,10.00
2017,03,31,16,21,10.00
2017,03,31,16,22,10.00
2017,03,31,16,23,10.00
2017,03,31,16,24,10.00
2017,03,31,16,25,10.00
2017,03,31,16,26,10.00
2017,03,31,16,27,10.00
2017,03,31,16,28,10.00
2017,03,31,16,29,9.90
2017,03,31,16,30,9.90
2017,03,31,16,31,9.80
2017,03,31,16,32,9.80
2017,03,31,16,33,9.70
2017,03,31,16,34,9.70
2017,03,31,16,35,9.70
2017,03,31,16,36,9.70
2017,03,31,16,37,9.70
2017,03,31,16,38,9.70
2017,03,31,16,39,9.70
2017,03,31,16,40,9.70
2017,03,31,16,41,9.70
2017,03,31,16,42,9.60
2017,03,31,16,43,9.70
2017,03,31,16,44,9.70
2017,03,31,16,45,9.70
2017,03,31,16,46,9.70
2017,03,31,16,47,9.70
2017,03,31,16,48,9.70
2017,03,31,16,49,9.60
2017,03,31,16,50,9.60
2017,03,31,16,51,9.60
2017,03,31,16,52,9.60
2017,03,31,16,53,9.60
2017,03,31,16,54,9.60
2017,03,31,16,55,9.60
2017,03,31,16,56,9.60
2017,03,31,16,57,9.60
2017,03,31,16,58,9.60
2017,03,31,16,59,9.60
2017,03,31,17,00,9.60
2017,03,31,17,01,9.70
2017,03,31,17,02,9.70
2017,03,31,17,03,9.70
2017,03,31,17,04,9.70
2017,03,31,17,05,9.70
2017,03,31,17,06,9.70
2017,03,31,17,07,9.70
2017,03,31,17,08,9.70
2017,03,31,17,09,9.70
2017,03,31,17,10,9.70
2017,03,31,17,11,9.70
2017,03,31,17,12,9.80
2017,03,31,17,13,9.80
2017,03,31,17,14,9.80
2017,03,31,17,15,9.80
2017,03,31,17,16,9.80
2017,03,31,17,17,9.80
2017,03,31,17,18,9.80
2017,03,31,17,19,9.80
2017,03,31,17,20,9.80
2017,03,31,17,21,9.80
2017,03,31,17,22,9.80
2017,03,31,17,23,9.70
2017,03,31,17,24,9.80
2017,03,31,17,25,9.80
2017,03,31,17,26,9.80
2017,03,31,17,27,9.80
2017,03,31,17,28,9.70
2017,03,31,17,29,9.70
2017,03,31,17,30,9.70
2017,03,31,17,31,9.70
2017,03,31,17,32,9.70
2017,03,31,17,33,9.70
2017,03,31,17,34,9.70
2017,03,31,17,35,9.70
2017,03,31,17,36,9.70
2017,03,31,17,37,9.70
2017,03,31,17,38,9.70
2017,03,31,17,39,9.60
2017,03,31,17,40,9.60
2017,03,31,17,41,9.60
2017,03,31,17,42,9.60
2017,03,31,17,43,9.60
2017,03,31,17,44,9.60
2017,03,31,17,45,9.60
2017,03,31,17,46,9.60
2017,03,31,17,47,9.60
2017,03,31,17,48,9.60
2017,03,31,17,49,9.60
2017,03,31,17,50,9.60
2017,03,31,17,51,9.70
2017,03,31,17,52,9.70
2017,03,31,17,53,9.70
2017,03,31,17,54,9.70
2017,03,31,17,55,9.80
2017,03,31,17,56,9.80
2017,03,31,17,57,9.80
2017,03,31,17,58,9.80
2017,03,31,17,59,9.80
2017,03,31,18,00,9.80
2017,03,31,18,01,9.90
2017,03,31,18,02,9.90